This is the latest recevied weather packets stored in our database for station/object JE0GNV-13. If no packets are shown the sender has not sent any weather packets the latest 10 day(s).
| Time | Temp. | Humidity | Pressure | Rain* | Wind** | Luminosity | Snow |
|---|---|---|---|---|---|---|---|
| 1777721400 | 12.22° C | 65% | 1010.8 hPa | 0 mm | - | - | - |
| 1777720802 | 12.78° C | 67% | 1010.7 hPa | 0 mm | - | - | - |
| 1777720201 | 12.78° C | 64% | 1010.7 hPa | 0 mm | - | - | - |
| 1777719601 | 12.78° C | 64% | 1010.2 hPa | 0 mm | - | - | - |
| 1777719000 | 13.33° C | 63% | 1010 hPa | 0 mm | - | - | - |
| 1777718402 | 13.89° C | 60% | 1010 hPa | 0 mm | - | - | - |
| 1777717801 | 14.44° C | 60% | 1009.8 hPa | 0 mm | - | - | - |
| 1777717202 | 14.44° C | 53% | 1009.6 hPa | 0 mm | - | - | - |
| 1777716602 | 15° C | 52% | 1009.6 hPa | 0 mm | - | - | - |
| 1777716001 | 15° C | 49% | 1009.4 hPa | 0 mm | - | - | - |
| 1777715401 | 15.56° C | 48% | 1009.1 hPa | 0 mm | - | - | - |
| 1777714801 | 16.11° C | 47% | 1009 hPa | 0 mm | - | - | - |
| 1777714201 | 15.56° C | 44% | 1008.8 hPa | 0 mm | - | - | - |
| 1777713601 | 16.11° C | 48% | 1008.9 hPa | 0 mm | - | - | - |
| 1777713001 | 16.67° C | 51% | 1008.9 hPa | 0 mm | - | - | - |
| 1777712400 | 17.22° C | 52% | 1008.7 hPa | 0 mm | - | - | - |
| 1777711802 | 17.78° C | 52% | 1008.5 hPa | 0 mm | - | - | - |
| 1777711200 | 18.89° C | 46% | 1008.4 hPa | 0 mm | - | - | - |
| 1777710600 | 19.44° C | 34% | 1008.3 hPa | 0 mm | - | - | - |
| 1777710001 | 20.56° C | 41% | 1008.3 hPa | 0 mm | - | - | - |
| 1777709400 | 20.56° C | 41% | 1008.3 hPa | 0 mm | - | - | - |
| 1777708801 | 20.56° C | 38% | 1008 hPa | 0 mm | - | - | - |
| 1777708202 | 20.56° C | 33% | 1008.1 hPa | 0 mm | - | - | - |
| 1777707601 | 21.11° C | 32% | 1008.1 hPa | 0 mm | - | - | - |
| 1777707001 | 21.11° C | 33% | 1007.8 hPa | 0 mm | - | - | - |
* Rain latest hour (hover to see other rain measurements)
** Current wind speed in m/s (hover to see current wind gust speed)